If you wish to contribute or participate in the discussions about articles you are invited to join SKYbrary as a registered user

 Actions

Arad International Airport

From SKYbrary Wiki

LRAR
Airport
ICAO: LRAR – IATA: ARW
Summary
Name Arad International Airport
Region
Territory Romania RO.gif
Location , Arad
Serving Arad
Elevation 107.29 m
352 ft
352 ft107.29 m
Type medium airport
Coordinates 46° 10' 35.58" N, 21° 15' 43.28" E
Runways
Designator Length Width Surface ROPS
9/27 2000 m6,561.68 ft
45 m147.638 ft
CON /


METAR
Observation LRAR 252130Z 17008KT CAVOK 17/10 Q1018
Station Arad
Date/Time 25 April 2019 21:30:00
Wind direction 170°
Wind speed 08 kts
Lowest cloud amount clouds and visibility OK
Temperature 17°C
Dew point 10°C
Humidity 63%
QNH 1018 hPa
Weather condition n/a